Regional Weather Roundup
Issued by NWS

Home | Current Version | Previous Version | Text Only | Print | Product List | Glossary On
Versions: 1 2 3 4 5 6 7 8 9 10 11 12 13 14 15 16 17 18 19 20 21 22 23 24 25 26 27 28 29 30 31 32 33 34 35 36 37 38 39 40 41 42 43 44 45 46 47 48 49 50
000
ASUS44 KOUN 011410
RWROK

WEATHER ROUNDUP FOR OKLAHOMA
NATIONAL WEATHER SERVICE NORMAN OK
900 AM CDT WED OCT 01 2014

NOTE: "FAIR" INDICATES FEW OR NO CLOUDS BELOW 12,000 FEET WITH NO
      SIGNIFICANT WEATHER AND/OR OBSTRUCTIONS TO VISIBILITY.

OKZ001>007-009>012-014-015-017-011500-
NORTHWEST OKLAHOMA AND THE PANHANDLE

CITY           SKY/WX    TMP DP  RH WIND       PRES   REMARKS
GAGE           SUNNY     66  57  72 SW9       29.73R
ENID/WOODRING  MOSUNNY   72  66  83 S15       29.72R
$$

OKZ016-021>023-033>039-044-045-011500-
SOUTHWEST OKLAHOMA

CITY           SKY/WX    TMP DP  RH WIND       PRES   REMARKS
LAWTON/REGL    PTSUNNY   74  65  73 S12       29.77R
LAWTON/FT SILL PTSUNNY   75  65  72 S14       29.77R
FREDERICK      MOSUNNY   74  64  71 S13       29.74R
CLINTON        SUNNY     72  62  71 S16       29.77R
HOBART         SUNNY     73  62  68 S16       29.76R
ALTUS AFB      SUNNY     73  64  71 S13       29.76R
$$

OKZ018>020-024>031-011500-
CENTRAL OKLAHOMA

CITY           SKY/WX    TMP DP  RH WIND       PRES   REMARKS
OKLAHOMA CITY  MOSUNNY   75  66  73 S14       29.76S
OKC/WILEY POST SUNNY     75  66  73 S17       29.75R
OKC/TINKER AFB SUNNY     75  66  72 S17       29.77S
STILLWATER     SUNNY     73  68  84 S7        29.74S
GUTHRIE        SUNNY     77  66  68 S15G23    29.73S
$$

OKZ008-013-054>072-011500-
NORTHEAST OKLAHOMA

CITY           SKY/WX    TMP DP  RH WIND       PRES   REMARKS
TULSA          PTSUNNY   73  65  75 S9        29.79S
TULSA/JONES    CLOUDY    73  66  78 S9        29.79R
PONCA CITY     MOSUNNY   71  67  87 SE8       29.74S
BARTLESVILLE   MOSUNNY   71  67  87 S9        29.78F
MUSKOGEE       MOSUNNY   73  65  75 SE13      29.83R
$$

OKZ032-040>043-046>053-073>077-011500-
SOUTH CENTRAL/SOUTHEAST OKLAHOMA

CITY           SKY/WX    TMP DP  RH WIND       PRES   REMARKS
ARDMORE/DWNTWN PTSUNNY   75  68  78 S8        29.81R
MCALESTER      SUNNY     76  69  79 S9        29.82S
$$




USA.gov is the U.S. government's official web portal to all federal, state and local government web resources and services.